Cosmos 1992 Rocket - Orbit

View from above orbital plane
View from above orbital plane
View from above satellite
View from above satellite

Ground track
Ground track

The orbit data is extracted from the following two-line orbital elements,

1 19770U 89005B   13144.91450787  .00000231  00000-0  84775-4 0  8394
2 19770 074.0463 263.5270 0005571 340.0983 158.8971 14.38149574273131
Epoch (UTC): 24 May 2013 21:56:53
Eccentricity: 0.0005571
inclination: 74.0463°
perigee height: 760 km
apogee height: 768 km
right ascension of ascending node: 263.5270°
argument of perigee: 340.0983°
revolutions per day: 14.38149574
mean anomaly at epoch: 158.8971°
orbit number at epoch: 27313

The dashed part of the orbit path shows where the satellite is in the earth's shadow,  

Developed and maintained by Chris Peat, Heavens-Above GmbH. Please read the updated FAQ before sending e-mail. Imprint. DLR